Flag for Norway Weather past 2 weeks in Melhus, Norway

Now
72 °F

Sunny.


Feels Like: 75 °F
Forecast: 57 / 69 °F
Wind: 6 mph from West

Location: Trondheim / Vaernes

Current Time: Jul 2, 2015 at 6:53:09 PM

Latest Report: Jul 2, 2015 at 5:50 PM


Visibility: 10 mi

Pressure: 30.09 "Hg

Humidity: 69%

Dew point: 61 °F

Location of MelhusLocation

Historic Weather in Melhus — Graph

°F

Melhus temperature yesterday

Maximum temperature yesterday: 63 °F (at 7:20 PM)
Minimum temperature yesterday: 54 °F (at 12:50 AM)
Average temperature yesterday: 59 °F

Past Weeks' High & Low Weather Summary

 TemperatureHumidityPressure
High73 °F (Jul 2, 3:50 PM)100% (Jun 18, 5:20 AM)30.24 "Hg (Jun 18, 5:20 AM)
Low43 °F (Jun 20, 3:50 AM)37% (Jun 17, 5:20 PM)29.62 "Hg (Jun 17, 6:20 PM)
Average55 °F77%29.93 "Hg
* Reported Jun 17 5:20 PM — Jul 2 5:20 PM, Melhus, Weather by CustomWeather, © 2015

Note: Actual official high and low records may vary slightly from our data, if they occured in-between our weather recording intervals... More about our weather records

Advertising

Melhus weather history for previous 24 hours

 ConditionsComfort  
Time TempWeatherWind HumidityBarometerVisibility
5:20 PM
Thu, Jul 2
72 °FSunny.10 mph69%30.09 "Hg10 mi
4:50 PM72 °FSunny.12 mph69%30.09 "Hg10 mi
4:20 PM73 °FSunny.6 mph69%30.09 "Hg10 mi
3:50 PM73 °FPassing clouds.5 mph65%30.12 "HgN/A
3:20 PM72 °FSunny.2 mph69%30.12 "Hg10 mi
2:50 PM68 °FSunny.6 mph73%30.12 "Hg10 mi
2:20 PM70 °FSunny.7 mph69%30.12 "Hg10 mi
1:50 PM68 °FSunny.8 mph73%30.12 "Hg10 mi
1:20 PM66 °FSunny.10 mph78%30.15 "Hg10 mi
12:50 PM66 °FSunny.13 mph78%30.15 "Hg10 mi
12:20 PM64 °FSunny.14 mph83%30.15 "Hg10 mi
11:50 AM64 °FSunny.13 mph83%30.15 "Hg10 mi
11:20 AM64 °FSunny.10 mph78%30.15 "Hg10 mi
10:50 AM64 °FSunny.9 mph83%30.15 "Hg10 mi
10:20 AM64 °FSunny.8 mph83%30.15 "Hg10 mi
9:50 AM63 °FSunny.7 mph83%30.18 "Hg10 mi
9:20 AM63 °FSunny.6 mph83%30.18 "Hg10 mi
8:50 AM61 °FSunny.9 mph94%30.18 "Hg10 mi
8:20 AM61 °FSunny.6 mph88%30.18 "Hg10 mi
7:50 AM61 °FSunny.2 mph88%30.18 "Hg10 mi
7:20 AM61 °FPassing clouds.5 mph88%30.18 "HgN/A
6:50 AM61 °FPassing clouds.2 mph88%30.18 "HgN/A
6:20 AM59 °FPassing clouds.6 mph94%30.18 "HgN/A
5:50 AM59 °FPassing clouds.9 mph94%30.18 "HgN/A
5:20 AM57 °FSunny.6 mph94%30.18 "Hg10 mi
4:50 AM57 °FSunny.7 mph94%30.21 "Hg10 mi
4:20 AM57 °FSunny.7 mph94%30.21 "Hg10 mi
3:50 AM57 °FClear.8 mph94%30.21 "Hg10 mi
2:50 AM59 °FClear.7 mph94%30.21 "Hg10 mi
1:50 AM61 °FClear.5 mph94%30.24 "Hg10 mi
1:20 AM61 °FClear.6 mph94%30.21 "Hg10 mi
12:50 AM61 °FClear.6 mph94%30.24 "Hg10 mi
12:20 AM61 °FSunny.6 mph94%30.24 "Hg10 mi
11:50 PM
Wed, Jul 1
61 °FSunny.6 mph94%30.24 "Hg10 mi
10:50 PM63 °FPartly sunny.6 mph88%30.21 "HgN/A
10:20 PM63 °FPartly sunny.6 mph88%30.21 "HgN/A
9:50 PM63 °FPartly sunny.5 mph88%30.21 "HgN/A
9:20 PM63 °FPartly sunny.6 mph88%30.21 "HgN/A
8:50 PM63 °FPartly sunny.5 mph88%30.21 "HgN/A
8:20 PM63 °FPartly sunny.3 mph88%30.21 "HgN/A
7:50 PM63 °FPartly sunny.6 mph94%30.21 "HgN/A
7:20 PM63 °FPartly sunny.7 mph88%30.21 "HgN/A
6:50 PM61 °FPartly sunny.8 mph94%30.21 "HgN/A
6:20 PM61 °FLight rain. Partly sunny.7 mph94%30.21 "HgN/A
Weather by CustomWeather, © 2015

See weather overviewHow to use our weather pages